| time (UTC) | temp F | wind direction | speed MPH | gust MPH | rain 1hr in | rain 24hr in | rain mn in | humidity % | barometer mb |
| 20260503231549 | 73 | 318 | 6.0 | 12.0 | 0.00 | 0.00 | 0.00 | 20 | 1002.3 |
| 20260503230038 | 73 | 338 | 4.0 | 12.0 | 0.00 | 0.00 | 0.00 | 19 | 1002.6 |
| 20260503224538 | 74 | 351 | 8.0 | 14.0 | 0.00 | 0.00 | 0.00 | 19 | 1002.8 |
| 20260503223030 | 75 | 355 | 7.0 | 13.0 | 0.00 | 0.00 | 0.00 | 18 | 1002.8 |
| 20260503221520 | 77 | 333 | 2.0 | 9.0 | 0.00 | 0.00 | 0.00 | 17 | 1003.0 |
| 20260503220010 | 76 | 309 | 1.0 | 5.0 | 0.00 | 0.00 | 0.00 | 17 | 1003.4 |
| 20260503214508 | 77 | 111 | 1.0 | 9.0 | 0.00 | 0.00 | 0.00 | 14 | 1003.7 |
| 20260503213100 | 77 | 115 | 4.0 | 10.0 | 0.00 | 0.00 | 0.00 | 14 | 1003.9 |
| 20260503211558 | 76 | 143 | 5.0 | 10.0 | 0.00 | 0.00 | 0.00 | 16 | 1004.2 |
| 20260503210011 | 76 | 95 | 4.0 | 12.0 | 0.00 | 0.00 | 0.00 | 18 | 1004.4 |
| 20260503204501 | 75 | 106 | 5.0 | 12.0 | 0.00 | 0.00 | 0.00 | 16 | 1004.6 |
| 20260503203052 | 75 | 142 | 6.0 | 12.0 | 0.00 | 0.00 | 0.00 | 17 | 1004.8 |
| 20260503201544 | 75 | 171 | 5.0 | 12.0 | 0.00 | 0.00 | 0.00 | 18 | 1005.0 |
| 20260503200031 | 76 | 117 | 7.0 | 15.0 | 0.00 | 0.00 | 0.00 | 16 | 1005.3 |
| 20260503194532 | 77 | 119 | 7.0 | 16.0 | 0.00 | 0.00 | 0.00 | 17 | 1005.3 |
| 20260503193034 | 77 | 134 | 7.0 | 13.0 | 0.00 | 0.00 | 0.00 | 21 | 1005.7 |
| 20260503191508 | 78 | 182 | 8.0 | 16.0 | 0.00 | 0.00 | 0.00 | 17 | 1005.9 |
| 20260503190106 | 77 | 166 | 10.0 | 17.0 | 0.00 | 0.00 | 0.00 | 17 | 1006.1 |
| 20260503184546 | 76 | 150 | 9.0 | 14.0 | 0.00 | 0.00 | 0.00 | 21 | 1006.4 |
| 20260503183052 | 75 | 101 | 5.0 | 13.0 | 0.00 | 0.00 | 0.00 | 22 | 1006.4 |
| 20260503181528 | 76 | 118 | 6.0 | 15.0 | 0.00 | 0.00 | 0.00 | 21 | 1006.8 |
| 20260503180032 | 74 | 152 | 5.0 | 20.0 | 0.00 | 0.00 | 0.00 | 26 | 1007.0 |
| 20260503174528 | 74 | 126 | 7.0 | 15.0 | 0.00 | 0.00 | 0.00 | 21 | 1007.2 |
| 20260503173054 | 73 | 158 | 7.0 | 14.0 | 0.00 | 0.00 | 0.00 | 22 | 1007.4 |
| 20260503171536 | 72 | 150 | 7.0 | 15.0 | 0.00 | 0.00 | 0.00 | 24 | 1007.6 |
| 20260503100107 | 49 | 190 | 3.0 | 6.0 | 0.00 | 0.00 | 0.00 | 38 | 1008.9 |
| 20260503081513 | 50 | 227 | 0.0 | 3.0 | 0.00 | 0.00 | 0.00 | 38 | 1009.1 |
| 20260503071607 | 49 | 238 | 0.0 | 3.0 | 0.00 | 0.00 | 0.00 | 39 | 1009.2 |
| 20260503070110 | 50 | 238 | 0.0 | 3.0 | 0.00 | 0.00 | 0.00 | 38 | 1009.3 |
| 20260503060107 | 53 | 238 | 3.0 | 5.0 | 0.00 | 0.00 | 0.00 | 36 | 1009.1 |
| 20260503054542 | 54 | 242 | 3.0 | 5.0 | 0.00 | 0.00 | 0.00 | 36 | 1009.2 |
| 20260503053030 | 54 | 242 | 4.0 | 7.0 | 0.00 | 0.00 | 0.00 | 35 | 1009.2 |
| 20260503051527 | 55 | 248 | 3.0 | 7.0 | 0.00 | 0.00 | 0.00 | 35 | 1009.3 |
| 20260503050049 | 55 | 246 | 3.0 | 5.0 | 0.00 | 0.00 | 0.00 | 34 | 1009.3 |
| 20260503044542 | 56 | 252 | 3.0 | 7.0 | 0.00 | 0.00 | 0.00 | 34 | 1009.4 |
| 20260503043044 | 56 | 257 | 1.0 | 6.0 | 0.00 | 0.00 | 0.00 | 33 | 1009.4 |
| 20260503041531 | 57 | 257 | 3.0 | 7.0 | 0.00 | 0.00 | 0.00 | 32 | 1009.3 |
| 20260503040028 | 57 | 252 | 4.0 | 7.0 | 0.00 | 0.00 | 0.00 | 32 | 1009.4 |
| 20260503034516 | 58 | 265 | 3.0 | 8.0 | 0.00 | 0.00 | 0.00 | 31 | 1009.3 |
| 20260503033018 | 58 | 252 | 5.0 | 9.0 | 0.00 | 0.00 | 0.00 | 30 | 1009.3 |
| 20260503031509 | 59 | 286 | 1.0 | 6.0 | 0.00 | 0.00 | 0.00 | 29 | 1009.1 |
| 20260503030100 | 60 | 266 | 3.0 | 7.0 | 0.00 | 0.00 | 0.00 | 30 | 1009.2 |
| 20260503024551 | 61 | 280 | 2.0 | 4.0 | 0.00 | 0.00 | 0.00 | 28 | 1009.2 |
| 20260503023044 | 62 | 292 | 4.0 | 8.0 | 0.00 | 0.00 | 0.00 | 27 | 1009.0 |
| 20260503021503 | 62 | 306 | 4.0 | 8.0 | 0.00 | 0.00 | 0.00 | 27 | 1009.0 |
| 20260503020055 | 63 | 306 | 4.0 | 9.0 | 0.00 | 0.00 | 0.00 | 27 | 1009.1 |
| 20260503014554 | 64 | 312 | 4.0 | 8.0 | 0.00 | 0.00 | 0.00 | 25 | 1009.0 |
| 20260503013054 | 64 | 317 | 5.0 | 10.0 | 0.00 | 0.00 | 0.00 | 25 | 1009.1 |
| 20260503011539 | 65 | 302 | 5.0 | 10.0 | 0.00 | 0.00 | 0.00 | 25 | 1009.1 |
| 20260503010044 | 66 | 310 | 5.0 | 11.0 | 0.00 | 0.00 | 0.00 | 24 | 1009.2 |
| 20260503004527 | 68 | 296 | 8.0 | 13.0 | 0.00 | 0.00 | 0.00 | 21 | 1009.1 |
| 20260503003019 | 69 | 326 | 8.0 | 15.0 | 0.00 | 0.00 | 0.00 | 20 | 1009.2 |
| 20260503001514 | 71 | 320 | 5.0 | 10.0 | 0.00 | 0.00 | 0.00 | 20 | 1009.1 |
| 20260503000002 | 72 | 347 | 6.0 | 14.0 | 0.00 | 0.00 | 0.00 | 19 | 1009.2 |
| 20260502234501 | 72 | 331 | 3.0 | 8.0 | 0.00 | 0.00 | 0.00 | 20 | 1009.3 |
| 20260502233002 | 73 | 302 | 6.0 | 13.0 | 0.00 | 0.00 | 0.00 | 20 | 1009.4 |